Theta_e
284 284 284 286 286 286 286 287 287 286 285 285 285 285 285 285 287 287 287 287 287 286 286 286 286 286 286 286 286 286 286 286 287 287 287 287 287 287 286 286 286 286 286 286 286 287 287 287 287 287 287 286 286 286 286 286 285 285 285 285 285 285
285 284 284 285 286 286 287 288 287 285 285 285 285 285 284 284 285 285 285 285 285 285 285 285 286 286 286 285 284 284 284 285 285 285 285 286 286 286 286 286 286 286 285 286 286 286 286 286 287 287 287 287 287 287 286 286 285 285 285 285 285 285
284 284 283 283 283 283 284 284 284 284 283 283 284 283 283 283 284 285 285 285 284 284 282 282 283 283 285 285 285 284 284 285 285 284 284 284 283 284 284 285 285 285 286 286 286 286 286 286 286 286 286 286 286 286 286 286 286 285 285 285 285 285
283 282 282 283 284 284 283 284 284 283 283 283 283 281 281 283 282 283 283 284 285 284 284 283 283 283 283 283 283 283 283 283 284 284 284 283 283 283 283 283 284 284 285 285 285 285 285 285 286 286 286 286 286 286 287 286 286 285 285 285 284 285
284 284 283 283 283 283 282 282 283 283 282 282 282 282 281 281 282 281 281 281 281 281 281 281 281 281 282 282 282 282 282 282 283 283 282 281 281 282 282 282 283 283 283 283 284 284 284 285 285 285 285 285 285 285 285 286 286 285 285 285 285 285
282 282 281 281 280 280 280 280 280 280 280 280 280 280 280 280 280 280 280 280 279 278 278 279 279 280 279 280 281 281 282 282 282 282 282 281 280 281 281 281 282 282 283 283 283 283 283 283 284 284 285 285 285 285 285 285 285 285 285 285 285 285
280 280 280 280 279 279 279 279 280 280 280 280 280 280 280 280 280 280 280 279 279 279 279 278 278 278 279 279 280 280 281 281 282 282 282 281 280 281 281 281 281 281 282 282 282 282 282 283 283 284 284 284 284 284 284 284 285 285 285 285 285 286
280 279 279 279 279 279 279 279 279 279 279 279 279 280 280 280 279 279 279 278 278 278 278 278 277 278 278 278 279 280 280 281 281 281 281 281 280 280 280 280 281 281 281 281 281 282 282 282 283 283 283 284 284 284 284 284 284 284 284 285 285 284
279 279 278 279 279 279 279 279 279 278 278 278 278 278 279 279 279 279 279 279 278 278 278 277 278 278 278 278 279 279 279 279 280 279 280 280 280 279 279 279 279 280 280 281 281 281 282 282 282 282 283 283 283 283 284 284 283 284 284 284 284 285
278 279 279 279 279 279 279 279 279 280 279 280 279 279 279 281 280 279 279 278 279 278 279 278 278 278 279 279 278 278 279 279 279 279 279 279 279 279 279 279 279 280 280 280 281 281 281 281 281 282 282 282 282 283 283 283 283 283 283 284 284 284
279 279 279 279 279 279 279 279 279 279 278 278 279 279 279 279 280 279 278 278 278 279 279 280 280 281 281 280 280 279 279 279 278 279 279 278 279 279 279 279 279 278 278 279 279 280 281 281 281 282 281 281 282 282 282 282 283 283 283 283 283 284
278 278 279 279 279 278 279 279 279 279 279 280 279 279 279 279 278 278 278 278 278 278 279 279 279 280 280 280 280 280 280 280 280 280 279 279 279 279 279 278 278 278 278 278 278 278 279 280 281 282 285 286 284 282 283 283 283 283 282 282 283 283
278 278 278 278 278 279 279 279 279 279 279 279 278 278 278 277 278 277 277 278 278 278 278 278 279 279 279 279 279 280 280 280 280 280 279 279 279 279 279 279 279 279 279 279 278 278 279 279 280 283 285 286 286 285 283 282 282 282 282 282 282 282
278 278 278 278 278 279 279 279 279 279 279 278 278 277 277 277 277 276 277 277 277 277 278 278 278 278 278 278 278 279 279 279 279 278 278 278 278 279 279 278 278 279 279 279 278 278 278 279 282 284 285 285 286 286 283 282 282 282 281 282 282 282
278 278 278 278 278 279 279 278 278 278 277 277 276 276 276 276 276 276 276 276 276 276 276 277 277 277 277 277 277 277 277 277 277 277 277 277 278 278 277 277 278 277 278 278 277 277 278 278 282 283 284 284 285 285 284 282 282 281 281 281 281 281
278 278 278 278 278 278 278 277 276 276 275 275 275 275 275 275 275 275 275 275 275 275 275 275 275 275 275 275 275 275 274 274 274 275 276 276 276 276 275 276 276 276 276 276 276 277 277 277 280 282 283 283 283 284 284 282 281 281 281 281 281 281
277 277 277 277 277 276 275 275 274 274 274 274 274 274 274 274 274 274 274 274 274 274 273 273 273 273 273 273 272 272 272 272 273 273 273 273 273 273 273 273 273 274 274 274 275 275 275 276 279 280 281 282 283 284 284 281 281 281 281 281 281 281
277 277 277 276 275 274 273 273 273 272 272 273 272 273 273 272 272 272 272 272 272 272 272 272 271 270 270 270 270 269 270 270 270 269 270 270 270 270 270 270 271 271 271 271 272 272 272 273 277 278 279 281 282 283 280 279 279 279 279 279 280 280
276 276 275 273 273 272 272 272 271 271 271 271 271 271 271 271 270 270 271 270 271 271 270 270 268 268 267 268 267 267 266 266 266 266 267 266 266 267 267 267 268 269 269 269 269 270 270 271 274 276 277 279 280 280 277 277 278 278 278 278 279 280
275 274 274 272 271 271 271 271 270 270 269 269 269 269 268 268 268 269 269 269 268 268 268 267 266 266 265 265 264 264 264 264 264 264 265 264 264 264 265 265 265 266 266 267 267 268 268 269 271 275 276 277 278 278 275 276 276 276 277 277 278 279
273 273 272 271 270 270 270 269 268 267 266 267 267 267 267 267 267 267 267 266 266 266 266 265 264 264 263 262 262 262 262 262 262 263 263 263 263 263 263 263 263 263 264 265 266 267 266 266 268 272 273 275 276 274 273 274 274 275 276 276 276 278
272 271 270 269 269 269 268 267 266 265 266 266 266 265 265 266 266 266 265 265 265 264 264 263 263 262 262 261 261 261 261 262 262 261 261 261 261 261 262 262 262 261 262 263 263 264 264 264 265 267 272 274 275 275 273 273 273 273 274 275 276 276
271 270 269 268 268 267 266 265 264 264 264 265 264 263 265 265 265 264 264 264 263 262 262 262 261 261 261 261 261 261 261 261 261 261 260 260 260 260 260 260 260 261 261 262 263 263 264 265 265 266 272 273 274 275 274 271 272 273 274 274 275 275
268 268 267 267 266 266 265 264 262 263 263 263 262 263 264 264 263 263 262 262 261 261 260 260 260 260 260 260 260 259 259 260 260 260 259 259 259 259 259 259 260 260 260 261 262 263 263 265 267 265 269 271 272 273 274 271 270 272 272 272 273 274
267 266 266 266 265 265 265 262 260 261 261 261 262 263 263 263 262 262 261 261 260 260 259 259 259 259 260 259 259 259 258 259 258 258 259 258 258 258 258 258 259 259 259 260 261 262 263 264 264 268 266 270 272 272 273 274 273 274 272 271 270 271
265 265 265 264 264 263 263 260 260 260 260 260 262 262 262 261 261 260 259 259 259 259 259 259 259 259 259 259 259 258 257 257 257 258 258 258 258 258 258 258 258 259 258 259 259 260 262 263 263 266 269 268 271 272 273 273 273 274 270 270 270 271
263 263 262 264 262 262 261 260 259 259 259 261 261 261 260 260 259 258 258 258 258 258 258 258 258 258 258 258 258 257 257 257 257 257 257 258 257 257 257 257 258 258 258 258 258 259 260 261 262 262 265 269 270 271 272 272 273 273 273 269 269 269
261 260 261 261 262 261 261 259 258 257 259 261 261 260 259 258 258 258 258 258 258 258 258 258 258 258 258 258 258 258 258 258 258 257 257 257 257 257 257 257 257 257 257 257 258 259 259 260 261 261 262 265 266 267 269 271 272 272 272 272 270 273
260 260 260 259 260 260 259 257 258 259 260 259 260 260 259 257 257 257 257 257 258 258 258 257 257 258 258 258 258 258 258 258 258 257 257 257 256 256 256 257 257 257 257 258 258 259 260 260 261 261 262 263 263 263 264 265 266 269 271 268 267 269
259 259 258 259 260 258 258 257 258 258 258 258 259 258 257 257 257 257 257 257 257 258 258 257 259 258 258 258 258 258 258 258 257 256 256 256 256 256 256 257 258 258 259 259 260 261 261 262 262 263 263 264 264 264 265 265 266 265 265 266 267 267
257 257 257 258 258 257 256 256 257 257 258 259 258 257 256 257 257 257 257 257 257 257 258 258 258 258 258 258 258 258 258 257 257 257 258 259 260 260 260 260 262 263 263 263 263 263 263 263 264 265 269 268 270 269 268 268 268 268 268 270 272 270
257 256 257 258 258 257 256 256 257 257 258 258 257 256 256 257 257 257 257 257 257 257 258 258 258 258 258 258 257 257 258 261 264 263 261 261 265 268 269 269 264 265 265 265 265 265 264 264 265 271 273 272 272 273 273 273 273 273 272 273 275 273
256 256 255 257 256 256 256 257 257 257 257 258 258 257 256 256 257 257 257 257 257 258 258 258 257 258 258 258 258 257 257 257 259 264 266 267 267 268 269 270 270 270 270 267 265 267 271 272 272 272 272 272 272 273 273 273 273 274 274 274 271 269
255 255 256 257 256 256 256 256 256 256 256 257 256 257 256 256 257 257 257 257 257 258 258 258 258 258 257 258 258 257 257 256 256 257 263 266 267 268 268 269 270 270 270 271 269 267 266 269 271 272 272 272 272 273 273 273 273 274 274 274 274 269
256 256 256 256 255 255 255 255 255 256 256 257 257 257 256 257 257 257 257 257 257 257 258 258 257 257 257 257 257 256 257 256 256 255 256 259 265 267 268 268 269 269 270 270 271 271 270 270 271 272 272 272 272 272 273 274 274 274 274 274 270 268
255 255 255 254 254 254 255 255 256 256 257 257 257 257 256 257 257 257 257 257 257 257 257 257 257 257 257 257 257 256 256 256 256 256 257 257 257 259 263 266 267 268 269 269 270 270 271 271 271 271 272 272 272 273 273 273 270 273 274 272 268 267
254 254 255 255 255 255 255 255 256 256 257 256 256 256 256 257 257 256 257 258 258 257 257 257 257 257 256 257 256 256 257 257 257 258 257 257 257 257 257 258 260 264 268 266 267 269 271 271 271 271 272 272 272 272 273 273 268 266 266 266 266 267
253 253 254 254 254 254 254 255 256 257 256 256 255 256 256 256 256 256 256 257 257 257 257 257 256 257 256 256 257 257 258 258 258 257 257 258 258 258 258 258 259 260 265 268 269 269 269 270 271 271 272 272 272 272 272 266 265 265 264 265 266 266
Wind_Speed
4 4 4 4 4 3 3 4 4 5 4 5 4 5 5 5 6 7 8 8 7 7 8 8 7 6 5 5 5 5 5 6 6 5 5 5 6 6 7 7 8 8 8 7 7 8 8 7 7 6 6 6 7 7 7 6 5 6 7 7 6 7
3 2 3 3 3 3 3 3 3 4 4 4 4 4 5 6 7 7 8 7 6 7 6 7 7 8 8 7 5 5 3 3 3 4 5 6 5 5 5 5 6 7 7 7 7 7 7 7 7 7 6 6 6 6 7 8 6 7 8 8 7 6
1 0 0 1 2 2 2 1 1 0 1 1 1 1 1 2 2 2 3 2 3 3 3 4 4 5 4 5 6 6 7 7 7 6 4 4 4 3 6 6 7 7 6 7 7 6 7 7 8 6 6 6 7 7 6 7 7 8 8 7 9 7
2 2 1 0 1 2 1 2 1 2 1 1 0 1 1 0 2 1 2 3 2 2 3 3 2 2 3 2 3 3 4 4 5 6 7 8 8 6 7 6 5 5 7 6 7 6 6 7 7 7 6 6 6 7 6 6 7 8 8 7 8 8
1 1 1 1 2 2 2 3 3 3 3 2 2 1 2 1 2 2 2 2 3 3 3 3 3 3 4 3 5 4 5 4 4 4 3 5 6 6 6 7 8 8 6 5 5 5 5 6 7 7 7 8 7 7 7 7 7 8 8 8 9 9
2 1 2 2 3 2 3 3 3 4 4 4 3 3 4 4 4 3 2 3 3 4 3 3 3 3 4 4 5 4 5 5 4 4 4 5 4 6 7 6 8 8 9 10 10 8 6 5 5 6 6 7 8 8 9 8 8 8 8 9 9 9
2 3 4 4 3 3 3 3 3 2 3 3 3 4 4 4 4 3 4 3 4 4 4 4 4 4 4 5 4 5 5 5 5 4 5 5 5 6 6 6 5 7 7 8 9 10 10 10 9 8 7 6 6 7 8 8 8 8 9 9 9 9
5 4 4 4 4 4 4 4 3 3 4 4 4 4 4 4 4 4 3 3 3 3 3 4 4 4 5 5 5 6 7 7 6 6 5 5 7 6 6 7 7 6 8 7 7 7 9 9 9 10 10 9 9 7 8 8 8 8 9 9 8 8
5 6 5 5 5 5 5 4 4 4 3 3 3 3 2 2 1 1 1 1 1 2 3 3 4 4 4 4 5 5 5 6 7 7 8 7 7 8 8 7 8 7 7 8 7 8 9 9 8 9 11 11 10 10 10 9 8 9 8 8 9 9
6 5 5 5 5 5 4 4 4 4 4 4 4 4 3 2 1 3 4 4 5 5 6 4 4 4 5 5 5 5 6 6 6 7 7 7 7 8 8 9 9 9 7 8 8 9 8 8 9 9 10 10 10 10 11 10 11 11 9 9 9 9
5 5 5 4 4 4 5 5 4 4 4 4 5 4 4 2 1 3 3 4 5 6 6 8 8 8 9 8 8 7 7 6 6 6 6 6 7 7 8 8 8 9 9 8 9 10 9 9 10 8 8 9 10 9 10 11 12 12 12 11 10 10
4 4 4 4 4 5 7 7 7 6 6 7 6 5 6 5 5 5 5 5 5 6 6 7 8 9 11 13 13 13 12 11 10 10 10 10 9 8 8 7 8 7 8 8 8 8 8 10 9 13 19 16 12 11 10 11 12 11 11 12 12 12
5 5 6 5 5 4 3 3 4 4 4 4 4 4 4 5 6 5 5 6 5 6 6 7 8 9 10 11 11 12 13 14 12 12 12 12 11 12 11 10 11 11 10 10 11 11 10 9 10 16 19 22 24 17 13 13 12 12 12 12 13 13
5 5 4 4 3 2 2 3 4 4 4 4 5 4 4 5 5 5 5 5 5 6 8 8 9 10 10 9 10 10 10 11 12 13 13 13 13 12 10 11 11 12 11 11 12 13 13 12 13 21 22 23 24 21 15 13 12 12 12 12 12 12
5 5 4 3 3 3 2 2 4 4 4 5 4 4 6 6 6 6 7 7 6 6 7 7 8 9 9 9 9 9 9 10 11 13 13 14 13 13 13 13 13 13 13 12 13 14 14 14 16 24 26 26 26 27 22 13 14 14 14 14 14 13
4 3 3 3 2 2 2 4 4 3 3 4 5 7 6 7 8 7 7 7 6 6 6 7 7 9 9 8 8 9 11 12 12 12 11 12 13 14 15 15 15 14 13 12 13 14 14 16 18 27 28 28 29 28 24 15 15 15 15 15 15 14
4 3 3 3 4 4 5 6 5 4 6 7 8 6 7 7 7 7 7 8 8 7 7 8 8 8 8 9 9 11 11 11 12 12 11 11 12 13 14 13 15 14 15 13 13 12 15 14 26 29 30 30 30 30 26 16 15 15 15 16 15 16
4 4 4 3 6 5 6 5 4 6 6 5 6 6 6 6 7 7 7 8 8 8 8 8 9 10 10 10 11 11 11 11 11 12 11 12 12 12 13 14 14 15 17 16 16 14 18 18 30 31 31 32 30 31 19 15 15 15 16 16 16 16
4 4 5 5 6 6 5 4 5 5 5 6 5 6 6 7 8 8 8 8 7 8 8 9 9 11 11 11 11 11 11 11 12 11 10 12 13 12 12 12 13 13 14 17 16 16 15 18 26 31 32 32 34 26 16 15 14 14 15 16 16 16
6 5 7 7 6 5 3 4 5 5 5 5 6 6 7 6 7 7 7 7 7 9 9 9 9 11 11 11 11 12 12 10 9 10 9 11 13 13 12 11 13 13 14 14 16 13 16 16 24 32 31 32 31 27 18 15 13 15 14 15 15 14
6 6 7 6 6 4 3 4 4 5 5 5 6 6 7 7 7 6 7 9 9 9 8 8 9 10 11 12 12 11 12 12 11 11 9 11 10 13 11 12 12 13 12 11 13 24 22 18 22 30 30 32 30 24 16 14 13 15 14 14 14 15
5 6 6 5 3 2 3 3 3 4 5 6 5 6 6 6 5 6 7 8 8 7 8 8 9 10 10 12 13 12 11 11 11 11 11 12 10 12 11 13 12 16 14 11 12 14 15 17 17 21 30 29 29 28 18 13 12 14 15 15 13 13
6 6 5 4 3 3 3 3 4 4 4 5 5 6 6 5 6 7 7 8 8 8 8 8 8 11 11 10 11 12 11 9 12 12 11 11 12 11 12 14 13 13 14 11 12 12 12 11 16 18 27 27 27 28 24 14 14 13 13 13 16 14
5 4 3 3 3 2 2 2 4 4 5 4 5 5 5 6 7 7 7 7 8 8 8 8 9 9 10 10 10 12 12 9 11 11 12 10 11 13 14 13 13 13 14 11 11 11 13 14 22 18 23 27 28 27 28 17 15 17 16 16 15 14
4 2 2 1 1 2 2 3 4 5 4 6 7 5 6 6 7 7 7 8 9 9 9 9 9 10 9 10 10 12 13 12 11 12 11 12 13 13 14 12 12 12 13 11 10 8 11 11 12 23 21 25 27 27 26 27 22 26 18 15 17 17
2 1 0 1 1 1 2 3 4 4 6 8 6 5 6 6 6 7 8 8 9 9 9 9 9 9 9 10 11 11 11 12 10 11 9 11 11 12 11 11 10 12 11 13 10 9 9 10 10 16 25 23 28 27 28 28 29 28 19 17 17 17
1 1 1 1 1 2 1 1 4 6 8 8 4 6 7 7 7 7 9 9 9 9 9 9 9 10 9 9 9 11 10 11 10 11 9 10 10 11 11 11 11 11 11 11 12 11 10 10 11 12 17 27 27 29 29 29 30 28 28 19 16 17
1 3 4 2 1 1 1 2 3 7 8 7 6 7 7 7 8 9 10 10 9 10 10 11 10 9 9 9 8 9 9 10 11 10 11 10 10 11 11 11 11 10 11 11 11 11 12 11 11 11 12 15 19 20 26 30 30 29 29 28 23 29
4 5 5 4 1 1 1 3 4 6 7 7 8 7 7 7 9 10 10 10 10 10 9 10 10 10 9 8 9 8 9 9 9 9 10 10 11 10 11 12 12 12 12 11 12 12 12 10 10 11 11 10 12 12 14 16 16 22 25 19 16 18
4 5 5 5 3 2 3 4 5 6 6 6 7 6 7 8 8 10 11 12 10 9 9 10 9 10 10 9 9 10 10 9 9 9 10 11 10 11 11 11 11 12 13 12 12 12 11 11 9 9 10 11 11 12 12 12 12 12 11 13 14 15
4 4 4 6 4 3 4 5 6 5 6 6 6 7 7 9 9 10 10 10 9 10 9 9 9 10 10 10 9 9 9 10 10 11 11 12 9 10 12 12 12 12 11 11 11 12 12 11 12 10 17 19 23 20 15 11 10 9 10 14 22 19
2 4 5 6 4 4 4 5 5 5 6 6 6 6 7 9 10 9 10 9 9 9 9 9 9 9 10 10 10 11 11 14 22 16 14 13 21 28 29 25 17 16 14 13 11 10 14 13 14 27 33 29 28 29 30 28 29 28 23 26 32 23
2 4 5 6 4 4 5 6 7 6 6 6 6 6 7 8 9 9 9 9 9 10 11 10 10 10 9 10 10 10 11 12 14 23 25 24 26 26 28 28 30 31 29 21 15 16 28 31 32 31 30 31 29 30 30 30 30 30 30 30 22 15
4 4 5 5 4 6 6 8 7 6 7 6 6 6 6 7 8 9 10 10 10 11 11 10 10 11 10 10 9 10 10 11 12 15 21 24 24 26 28 28 28 29 28 29 26 21 15 22 28 31 30 31 31 29 30 29 29 29 29 29 29 17
3 4 4 5 5 7 7 8 8 6 6 6 6 5 7 7 8 10 10 10 10 10 11 10 10 10 10 10 11 10 10 10 11 13 15 19 24 27 25 26 26 26 26 27 28 29 26 26 27 31 31 30 30 29 28 29 31 31 31 32 18 10
3 4 5 5 6 7 7 8 9 7 7 6 6 6 7 8 9 9 9 9 10 11 10 10 9 10 10 10 10 10 10 10 10 11 12 13 15 19 22 23 24 23 24 26 28 28 28 28 29 29 29 29 29 29 28 28 22 27 28 22 14 11
5 5 6 7 7 7 7 9 9 7 6 6 6 6 7 8 10 9 11 15 12 9 9 9 9 10 10 10 10 10 10 11 10 11 11 11 12 13 14 15 19 24 27 23 21 24 28 28 28 29 28 30 28 28 29 27 15 13 12 12 10 10
5 7 6 6 7 7 7 10 8 6 5 6 5 6 8 9 9 9 9 9 10 9 8 9 9 9 10 10 10 10 10 11 11 11 11 11 11 12 12 13 13 13 18 30 28 28 26 28 29 29 29 27 28 27 27 13 10 11 10 11 11 11
Wind_Direction
55 41 40 29 36 29 28 21 30 34 22 22 30 25 17 10 10 13 11 17 16 15 17 20 22 27 30 24 17 8 11 5 359 0 352 348 356 355 353 346 341 340 338 340 337 335 333 329 324 320 316 311 305 295 287 280 270 266 267 266 259 257
86 78 55 33 10 360 356 357 24 40 34 26 19 14 10 6 2 3 1 356 3 1 5 6 11 7 8 8 12 9 12 350 346 344 354 349 347 344 340 332 330 331 332 332 334 332 332 330 325 324 318 314 298 293 293 284 283 277 270 271 261 259
118 311 256 284 307 319 331 19 28 342 45 30 49 73 349 20 337 346 320 324 319 344 336 335 349 350 348 350 353 354 344 347 346 353 352 336 347 335 332 328 323 318 317 320 325 330 329 330 327 325 321 316 308 299 286 286 282 276 274 273 275 268
213 240 274 288 351 331 335 315 351 344 332 248 308 12 323 40 325 298 315 311 302 300 281 268 279 277 290 303 296 304 311 315 323 332 348 348 336 350 334 324 310 299 301 309 311 318 322 322 323 322 324 313 307 300 294 286 280 275 272 270 271 271
200 212 226 255 235 248 269 286 277 261 266 287 278 207 275 240 266 275 289 292 301 294 292 292 294 296 301 305 299 296 301 298 301 305 316 316 315 321 322 319 320 316 307 294 285 286 301 305 309 312 316 314 307 297 292 286 280 275 274 270 264 264
213 224 249 262 263 259 257 246 251 255 256 250 252 231 248 261 251 259 279 299 303 293 310 294 274 277 275 277 276 273 276 278 279 282 277 275 278 287 290 300 306 313 315 319 318 316 304 286 276 282 289 295 298 300 297 293 283 275 270 270 272 267
221 226 225 216 231 239 260 256 254 249 247 246 233 238 242 230 239 220 258 262 270 291 296 291 291 286 294 290 295 281 277 272 272 272 265 268 269 264 270 275 276 283 289 296 304 309 312 311 308 299 286 271 268 274 278 279 281 280 275 269 266 266
208 216 218 212 209 206 218 232 240 242 240 237 214 216 230 227 225 214 219 218 213 241 246 254 264 264 258 269 281 286 290 292 295 292 280 268 276 275 267 271 274 270 276 273 275 281 288 294 298 297 294 292 288 275 264 263 266 269 271 275 270 263
190 198 201 195 203 203 207 208 225 231 231 262 255 233 241 256 209 222 216 235 226 257 265 261 261 254 252 253 255 262 265 266 269 275 278 283 280 281 283 277 277 272 265 271 274 276 277 276 277 283 287 289 287 285 283 279 268 260 261 263 265 264
201 211 215 218 223 223 229 233 227 235 242 247 261 260 255 276 320 324 333 341 339 335 322 305 276 268 267 267 266 260 255 255 250 246 249 248 254 257 259 265 270 275 274 275 277 276 274 273 274 272 271 273 278 282 283 281 280 278 270 262 258 259
227 235 239 235 237 234 238 247 260 263 265 253 250 258 258 275 320 322 347 351 340 328 325 327 328 323 318 312 305 301 294 282 270 267 266 260 257 253 247 249 252 262 267 267 269 277 278 277 274 271 265 267 269 267 270 274 275 275 276 274 268 258
282 277 275 288 325 343 352 352 345 333 322 312 325 340 343 10 8 19 0 351 333 324 324 321 319 320 319 319 317 315 312 308 305 303 301 299 293 287 283 275 270 263 263 269 269 265 269 272 274 274 272 266 265 268 268 266 264 265 267 272 274 271
63 61 59 61 69 58 32 6 345 343 354 356 2 14 359 23 10 0 350 336 325 321 321 323 316 312 309 304 307 307 309 310 310 310 308 307 305 302 298 293 290 289 286 285 285 283 275 270 269 265 267 271 272 273 272 268 266 262 262 262 265 270
91 86 87 79 66 50 31 5 352 18 12 6 18 356 358 8 0 347 331 322 326 330 326 313 307 304 301 305 303 305 306 310 312 313 313 311 310 307 303 298 292 290 291 290 289 287 285 283 273 275 277 277 276 274 271 270 270 267 263 259 257 258
124 123 120 104 67 45 5 15 26 22 1 10 341 349 0 353 349 343 338 333 329 315 308 306 304 305 307 309 310 309 313 313 313 312 313 312 312 311 306 299 298 295 293 290 289 287 286 284 282 284 285 285 283 282 280 274 271 271 269 267 264 263
130 133 134 127 109 78 41 55 48 6 9 2 360 6 355 351 342 337 320 315 315 314 312 310 310 306 307 313 318 319 315 313 308 307 307 308 309 306 304 303 300 298 295 293 292 291 290 286 286 287 288 287 286 285 284 279 277 274 271 270 268 267
122 113 77 56 55 50 48 36 22 2 10 6 356 355 353 337 326 318 316 314 316 320 317 313 310 311 316 318 316 312 307 304 305 306 309 310 307 306 305 305 305 301 299 295 294 291 289 286 288 290 290 290 290 289 288 285 282 279 277 275 271 267
135 132 110 77 67 59 50 32 8 13 357 357 353 340 334 322 312 308 310 309 314 317 320 324 322 320 319 316 313 309 308 310 311 312 315 311 303 299 299 294 297 295 297 297 295 293 290 289 291 291 293 293 292 292 290 286 282 280 277 274 273 270
143 127 99 84 76 61 38 13 14 8 354 348 335 328 318 315 308 308 310 310 318 325 331 332 325 320 318 317 315 313 311 311 309 306 308 299 294 292 292 292 293 293 294 296 297 296 294 293 294 295 295 294 294 294 292 289 284 278 275 272 272 270
95 89 103 100 79 63 35 19 19 5 344 327 319 317 310 305 300 305 311 321 330 329 329 329 325 319 318 317 313 310 307 305 298 294 301 296 298 295 293 297 296 291 290 290 293 294 296 295 298 300 301 298 297 296 295 295 292 287 282 279 275 274
112 108 93 86 71 38 32 23 20 353 326 314 311 308 301 302 304 320 329 326 326 325 326 324 320 315 312 308 305 305 302 301 299 298 299 293 291 291 293 293 290 288 287 291 296 300 299 299 300 301 302 300 299 297 292 288 281 281 275 276 275 273
93 75 78 80 69 49 33 20 360 331 311 307 304 302 299 302 322 331 325 319 318 319 314 313 309 304 302 301 299 297 294 297 298 297 297 294 289 289 290 292 288 290 290 295 293 291 291 293 292 296 300 300 299 298 295 287 285 282 283 282 281 280
94 96 98 92 60 35 21 1 344 315 303 300 300 292 300 318 327 320 315 313 308 305 303 300 298 298 296 292 293 294 293 293 293 295 293 291 292 287 288 289 288 286 287 292 289 286 285 285 293 298 303 304 305 305 304 296 288 283 279 276 273 265
90 88 85 79 45 39 12 352 328 304 303 301 289 292 315 321 313 309 306 303 300 298 296 295 292 288 290 293 293 293 290 287 285 287 290 287 288 289 287 288 289 288 288 288 285 287 290 293 298 301 305 305 304 304 302 298 293 292 289 286 278 274
96 99 104 51 36 29 351 352 316 304 303 295 294 311 313 307 306 302 299 298 296 296 294 293 291 292 293 291 290 288 290 292 290 287 287 287 287 285 286 287 286 288 291 292 288 286 291 294 296 301 302 304 304 304 302 300 299 297 295 293 290 289
103 93 64 353 28 12 348 331 309 303 300 292 304 310 304 301 298 296 296 294 293 294 294 293 293 290 288 289 290 288 287 291 287 286 285 285 286 290 290 291 290 291 292 295 295 290 289 289 288 296 299 300 300 301 300 300 299 298 295 292 287 289
38 348 336 310 9 338 331 323 315 302 293 294 312 305 303 300 299 298 296 294 294 294 293 294 292 292 290 286 287 292 293 290 291 292 288 287 288 287 289 290 292 291 292 291 293 292 287 286 285 283 288 290 293 295 295 295 293 292 291 289 288 286
10 341 321 322 300 317 313 319 301 295 289 302 303 300 299 300 302 300 297 297 297 298 299 299 296 289 285 286 287 287 287 289 295 293 294 291 288 290 290 289 290 287 288 285 284 283 281 280 277 276 277 280 283 282 282 284 285 286 286 285 283 285
343 323 317 312 305 301 303 295 279 274 290 295 297 298 300 300 300 299 300 301 303 300 299 299 301 300 298 301 298 290 286 290 288 288 289 289 288 286 285 287 287 286 282 278 280 278 279 271 270 274 273 272 274 270 270 273 272 274 278 280 277 276
324 306 304 302 303 310 295 290 284 283 285 287 290 294 298 299 299 301 303 304 304 302 303 300 292 296 306 303 299 298 296 291 288 286 285 286 285 286 283 282 281 281 282 282 284 283 281 281 276 272 276 275 270 269 268 264 262 261 252 263 268 265
300 286 294 293 302 302 296 283 283 284 287 293 297 298 300 299 300 299 298 299 302 301 300 297 300 304 303 301 295 288 287 291 291 286 279 271 263 270 279 282 285 286 287 285 290 296 294 291 290 286 294 293 296 298 297 291 285 274 269 264 273 275
271 292 294 294 304 301 294 288 287 290 290 293 291 295 297 301 303 302 300 302 301 301 302 302 303 304 301 297 299 299 294 287 295 293 293 292 293 295 296 297 296 297 298 298 293 290 296 298 297 303 305 305 304 301 298 296 296 296 294 293 293 292
290 292 294 295 300 296 295 297 298 298 294 290 293 294 293 298 302 302 301 305 304 305 306 305 304 303 299 296 297 297 298 301 301 300 298 297 298 299 300 301 301 302 303 303 302 302 302 303 305 306 304 303 302 300 299 299 298 297 295 295 294 289
302 296 294 299 302 301 301 298 296 293 289 286 284 284 285 292 297 301 303 304 303 306 305 303 302 302 299 298 297 299 300 300 302 303 303 304 304 304 303 303 304 305 307 307 307 307 305 305 305 305 304 303 302 303 302 302 301 299 298 298 299 297
289 291 292 298 299 299 299 295 293 290 287 288 286 287 293 295 297 297 301 303 304 302 302 302 303 301 301 302 303 302 302 301 301 303 306 310 308 306 304 305 306 308 309 311 312 312 309 308 308 308 309 310 311 312 311 308 306 307 307 307 305 296
292 293 294 296 294 292 292 290 291 294 293 291 294 296 294 298 300 301 300 302 301 302 302 304 303 303 301 298 298 296 297 295 293 293 296 304 311 317 317 313 311 311 314 314 314 314 313 312 313 313 312 311 311 310 309 307 307 309 307 305 301 295
297 292 290 292 294 293 289 287 289 290 292 296 297 301 305 307 307 303 299 298 300 296 298 299 301 301 298 297 297 297 295 294 294 296 298 299 302 304 305 308 313 316 316 316 315 314 315 315 314 313 313 313 313 312 311 314 315 311 307 304 289 285
293 287 288 286 283 284 285 285 289 294 295 298 302 310 312 311 308 305 302 302 302 301 298 299 298 296 294 295 293 293 293 295 297 298 295 294 293 293 292 296 299 298 303 309 312 313 313 314 315 316 315 314 314 313 316 314 304 298 293 290 286 280